Charleston, SC

4:29 PM EDT on October 21, 2017 (GMT -0400)
Charleston Executive

Weather History for KJZI - July, 2014

Change the Weather History Date:

Monday, July 28, 2014

  Actual Average (KCHS) Record (KCHS)
Temperature  
Mean Temperature 89 °F -  
Max Temperature 96 °F 91 °F 101 °F (1949)
Min Temperature 82 °F 74 °F 65 °F (1954)
Cooling Degree Days 24    
Growing Degree Days 39 (Base 50)    
Moisture  
Dew Point 73 °F    
Average Humidity 63    
Maximum Humidity 84    
Minimum Humidity 46    
Precipitation  
Precipitation 0.00 in - - ()
Sea Level Pressure  
Sea Level Pressure 29.86 in    
Wind  
Wind Speed 7 mph (WSW)    
Max Wind Speed 16 mph    
Max Gust Speed 24 mph    
Visibility 9 miles    
Events Thunderstorm    
Averages and records for this station are not official NWS values.
T = Trace of Precipitation, MM = Missing Value Source: NWS Daily Summary

Daily Weather History Graph

Daily Weather History Graph

Search for Another Location

Airport or City:

Trip Planner

Search our weather history database for the weather conditions in past years. The results will help you decide how hot, cold, wet, or windy it might be!

Date:

Astronomy

Jul. 28, 2014 Rise Set
Actual Time 6:31 AM EDT 8:21 PM EDT
Civil Twilight 6:04 AM EDT 8:48 PM EDT
Nautical Twilight 5:31 AM EDT 9:21 PM EDT
Astronomical Twilight 4:56 AM EDT 9:55 PM EDT
Moon 8:03 AM EDT (7/28) 9:12 PM EDT (7/28)
Length of Visible Light 14h 44m
Length of Day
13h 50m
Waxing Crescent, 3% of the Moon is Illuminated
Jul 28
Waxing Crescent
Aug 3
First Quarter
Aug 10
Full
Aug 17
Last Quarter
Aug 25
New

Hourly Weather History & Observations

Time (EDT) Temp. Heat Index Dew Point Humidity Pressure Visibility Wind Dir Wind Speed Gust Speed Precip Events Conditions
12:15 AM 86.0 °F 99.3 °F 78.8 °F 79% 29.91 in 7.0 mi SW 8.1 mph - 0.00 in   Clear
12:35 AM 86.0 °F 99.3 °F 78.8 °F 79% 29.90 in 7.0 mi SW 8.1 mph - 0.00 in   Clear
1:15 AM 84.2 °F 96.1 °F 78.8 °F 84% 29.90 in 7.0 mi SSW 11.5 mph 18.4 mph 0.00 in   Clear
1:35 AM 86.0 °F 96.9 °F 77.0 °F 74% 29.90 in 7.0 mi SW 9.2 mph 17.3 mph 0.00 in   Clear
1:55 AM 84.2 °F 94.1 °F 77.0 °F 79% 29.90 in 7.0 mi SW 8.1 mph - 0.00 in   Clear
2:15 AM 84.2 °F 96.1 °F 78.8 °F 84% 29.90 in 7.0 mi SW 4.6 mph - 0.00 in   Clear
2:35 AM 84.2 °F 96.1 °F 78.8 °F 84% 29.89 in 6.0 mi SW 6.9 mph - 0.00 in   Haze
2:55 AM 84.2 °F 96.1 °F 78.8 °F 84% 29.89 in 6.0 mi Calm Calm - 0.00 in   Haze
3:15 AM 84.2 °F 92.3 °F 75.2 °F 74% 29.89 in 8.0 mi WSW 4.6 mph - 0.00 in   Clear
3:35 AM 84.2 °F 90.9 °F 73.4 °F 70% 29.89 in 10.0 mi SW 5.8 mph - 0.00 in   Clear
3:55 AM 84.2 °F 89.6 °F 71.6 °F 66% 29.89 in 10.0 mi SW 3.5 mph - 0.00 in   Clear
4:15 AM 82.4 °F 87.2 °F 71.6 °F 70% 29.88 in 10.0 mi Calm Calm - 0.00 in   Clear
4:35 AM 82.4 °F 87.2 °F 71.6 °F 70% 29.89 in 10.0 mi WSW 5.8 mph - 0.00 in   Clear
4:55 AM 82.4 °F 87.2 °F 71.6 °F 70% 29.89 in 10.0 mi WSW 5.8 mph - 0.00 in   Clear
5:15 AM 82.4 °F 87.2 °F 71.6 °F 70% 29.89 in 10.0 mi Calm Calm - 0.00 in   Clear
5:35 AM 82.4 °F 87.2 °F 71.6 °F 70% 29.90 in 10.0 mi WSW 3.5 mph - 0.00 in   Clear
5:55 AM 82.4 °F 87.2 °F 71.6 °F 70% 29.89 in 10.0 mi WSW 4.6 mph - 0.00 in   Clear
6:15 AM 82.4 °F 87.2 °F 71.6 °F 70% 29.89 in 10.0 mi WSW 6.9 mph - 0.00 in   Clear
6:35 AM 82.4 °F 87.2 °F 71.6 °F 70% 29.89 in 10.0 mi Calm Calm - 0.00 in   Clear
6:55 AM 82.4 °F 87.2 °F 71.6 °F 70% 29.89 in 10.0 mi Calm Calm - 0.00 in   Clear
7:15 AM 82.4 °F 87.2 °F 71.6 °F 70% 29.89 in 9.0 mi SW 6.9 mph - 0.00 in   Clear
7:35 AM 82.4 °F 87.2 °F 71.6 °F 70% 29.89 in 9.0 mi SW 6.9 mph - 0.00 in   Clear
7:55 AM 82.4 °F 87.2 °F 71.6 °F 70% 29.89 in 9.0 mi SW 8.1 mph - 0.00 in   Clear
8:15 AM 82.4 °F 87.2 °F 71.6 °F 70% 29.89 in 9.0 mi SW 6.9 mph - 0.00 in   Clear
8:35 AM 84.2 °F 89.6 °F 71.6 °F 66% 29.89 in 9.0 mi WSW 6.9 mph - 0.00 in   Clear
8:55 AM 84.2 °F 89.6 °F 71.6 °F 66% 29.89 in 9.0 mi SW 8.1 mph - 0.00 in   Clear
9:15 AM 84.2 °F 89.6 °F 71.6 °F 66% 29.89 in 10.0 mi SW 8.1 mph - 0.00 in   Clear
9:35 AM 84.2 °F 89.6 °F 71.6 °F 66% 29.89 in 9.0 mi WSW 4.6 mph - 0.00 in   Clear
9:55 AM 87.8 °F 93.8 °F 71.6 °F 58% 29.89 in 9.0 mi SW 11.5 mph 16.1 mph 0.00 in   Scattered Clouds
10:15 AM 87.8 °F 95.6 °F 73.4 °F 62% 29.88 in 9.0 mi WSW 9.2 mph - 0.00 in   Scattered Clouds
10:35 AM 87.8 °F 95.6 °F 73.4 °F 62% 29.88 in 10.0 mi WSW 9.2 mph 16.1 mph 0.00 in   Partly Cloudy
10:55 AM 87.8 °F 93.8 °F 71.6 °F 58% 29.88 in 10.0 mi WSW 12.7 mph 20.7 mph 0.00 in   Scattered Clouds
11:15 AM 89.6 °F 96.2 °F 71.6 °F 55% 29.89 in 10.0 mi WSW 11.5 mph - 0.00 in   Scattered Clouds
11:35 AM 89.6 °F 96.2 °F 71.6 °F 55% 29.89 in 10.0 mi WSW 11.5 mph - 0.00 in   Scattered Clouds
11:55 AM 91.4 °F 98.4 °F 71.6 °F 52% 29.88 in 10.0 mi WSW 16.1 mph 19.6 mph 0.00 in   Scattered Clouds
12:15 PM 91.4 °F 98.4 °F 71.6 °F 52% 29.88 in 10.0 mi WSW 10.4 mph 16.1 mph 0.00 in   Scattered Clouds
12:35 PM 91.4 °F 98.4 °F 71.6 °F 52% 29.88 in 10.0 mi WSW 12.7 mph 18.4 mph 0.00 in   Scattered Clouds
12:55 PM 93.2 °F 100.5 °F 71.6 °F 49% 29.87 in 10.0 mi SW 10.4 mph 18.4 mph 0.00 in   Scattered Clouds
1:15 PM 93.2 °F 98.8 °F 69.8 °F 46% 29.87 in 10.0 mi WSW 13.8 mph 19.6 mph 0.00 in   Scattered Clouds
1:35 PM 93.2 °F 98.8 °F 69.8 °F 46% 29.86 in 10.0 mi West 16.1 mph 24.2 mph 0.00 in   Scattered Clouds
1:55 PM 93.2 °F 98.8 °F 69.8 °F 46% 29.86 in 10.0 mi West 15.0 mph 19.6 mph 0.00 in   Scattered Clouds
2:15 PM 95.0 °F 103.2 °F 71.6 °F 47% 29.86 in 10.0 mi West 15.0 mph 18.4 mph 0.00 in   Scattered Clouds
2:35 PM 96.8 °F 107.3 °F 73.4 °F 47% 29.85 in 10.0 mi WSW 8.1 mph 17.3 mph 0.00 in   Scattered Clouds
2:55 PM 93.2 °F 100.5 °F 71.6 °F 49% 29.84 in 10.0 mi WSW 10.4 mph 17.3 mph 0.00 in   Scattered Clouds
3:35 PM 95.0 °F 104.5 °F 73.4 °F 49% 29.83 in 10.0 mi West 9.2 mph 18.4 mph 0.00 in   Scattered Clouds
3:55 PM 95.0 °F 104.5 °F 73.4 °F 49% 29.83 in 10.0 mi WSW 10.4 mph 16.1 mph 0.00 in   Partly Cloudy
4:15 PM 93.2 °F 102.4 °F 73.4 °F 52% 29.82 in 10.0 mi SW 9.2 mph - 0.00 in Thunderstorm Thunderstorm
4:35 PM 93.2 °F 100.5 °F 71.6 °F 49% 29.82 in 10.0 mi WSW 11.5 mph 19.6 mph 0.00 in Thunderstorm Partly Cloudy
4:55 PM 93.2 °F 102.4 °F 73.4 °F 52% 29.81 in 9.0 mi WSW 10.4 mph 16.1 mph 0.00 in Thunderstorm Clear
5:15 PM 93.2 °F 102.4 °F 73.4 °F 52% 29.81 in 10.0 mi SW 8.1 mph - 0.00 in Thunderstorm Partly Cloudy
5:35 PM 91.4 °F 100.1 °F 73.4 °F 55% 29.80 in 10.0 mi WSW 8.1 mph - 0.00 in   Partly Cloudy
5:55 PM 91.4 °F 100.1 °F 73.4 °F 55% 29.82 in 10.0 mi SW 6.9 mph - 0.00 in   Partly Cloudy
6:35 PM 89.6 °F 98.2 °F 73.4 °F 59% 29.80 in 10.0 mi SW 3.5 mph - 0.00 in Thunderstorm Clear
6:55 PM 91.4 °F 98.4 °F 71.6 °F 52% 29.80 in 10.0 mi SW 8.1 mph - 0.00 in   Clear
7:15 PM 89.6 °F 96.2 °F 71.6 °F 55% 29.81 in 10.0 mi Calm Calm - 0.00 in   Clear
7:35 PM 87.8 °F 93.8 °F 71.6 °F 58% 29.81 in 10.0 mi WSW 9.2 mph - 0.00 in   Clear
7:55 PM 87.8 °F 93.8 °F 71.6 °F 58% 29.81 in 10.0 mi Calm Calm - 0.00 in   Clear
8:15 PM 87.8 °F 93.8 °F 71.6 °F 58% 29.81 in 10.0 mi Calm Calm - 0.00 in   Clear
8:35 PM 87.8 °F 92.6 °F 69.8 °F 55% 29.81 in 10.0 mi Calm Calm - 0.00 in   Clear
8:55 PM 86.0 °F 90.4 °F 69.8 °F 58% 29.82 in 10.0 mi Calm Calm - 0.00 in   Clear
9:15 PM 84.2 °F 88.4 °F 69.8 °F 62% 29.82 in 10.0 mi Calm Calm - 0.00 in   Clear
9:35 PM 84.2 °F 89.6 °F 71.6 °F 66% 29.83 in 10.0 mi Calm Calm - 0.00 in   Partly Cloudy
9:55 PM 84.2 °F 89.6 °F 71.6 °F 66% 29.83 in 10.0 mi Calm Calm - 0.00 in   Clear
10:15 PM 82.4 °F 88.2 °F 73.4 °F 74% 29.84 in 10.0 mi Calm Calm - 0.00 in   Clear
10:35 PM 84.2 °F 90.9 °F 73.4 °F 70% 29.84 in 9.0 mi Calm Calm - 0.00 in   Clear
10:55 PM 84.2 °F 90.9 °F 73.4 °F 70% 29.84 in 10.0 mi Calm Calm - 0.00 in   Clear
11:15 PM 82.4 °F 88.2 °F 73.4 °F 74% 29.84 in 10.0 mi Calm Calm - 0.00 in   Clear
11:35 PM 84.2 °F 90.9 °F 73.4 °F 70% 29.84 in 10.0 mi Calm Calm - 0.00 in   Mostly Cloudy
11:55 PM 84.2 °F 92.3 °F 75.2 °F 74% 29.85 in 10.0 mi Calm Calm - 0.00 in   Mostly Cloudy